Change the Weather History Date:

Wednesday, May 1, 2013

  Actual Average Record
Temperature  
Mean Temperature 60 °F -  
Max Temperature 66 °F 78 °F 92 °F (1962)
Min Temperature 54 °F 54 °F 40 °F (1963)
Degree Days  
Heating Degree Days 5    
Growing Degree Days 10 (Base 50)    
Moisture  
Dew Point 56 °F    
Average Humidity 82    
Maximum Humidity 97    
Minimum Humidity 70    
Precipitation  
Precipitation 0.00 in - - ()
Sea Level Pressure  
Sea Level Pressure 30.23 in    
Wind  
Wind Speed 6 mph (NE)    
Max Wind Speed 12 mph    
Max Gust Speed 23 mph    
Visibility 10 miles    
Events Rain    
Averages and records for this station are not official NWS values.
T = Trace of Precipitation, MM = Missing Value Source: NWS Daily Summary

Daily Weather History Graph

Daily Weather History Graph

Search for Another Location

Airport or City:

Trip Planner

Search our weather history database for the weather conditions in past years. The results will help you decide how hot, cold, wet, or windy it might be!

Date:

Astronomy

May. 01, 2013 Rise Set
Actual Time 6:33 AM EDT 8:09 PM EDT
Civil Twilight 6:06 AM EDT 8:37 PM EDT
Nautical Twilight 5:33 AM EDT 9:09 PM EDT
Astronomical Twilight 4:59 AM EDT 9:44 PM EDT
Moon 1:17 AM EDT (5/1) 12:09 PM EDT (5/1)
Length of Visible Light 14h 30m
Length of Day
13h 36m
Waning Gibbous, 59% of the Moon is Illuminated
May 1
Waning Gibbous
May 2
Last Quarter
May 9
New
May 18
First Quarter
May 25
Full

Hourly Weather History & Observations

Time (EDT) Temp. Dew Point Humidity Pressure Visibility Wind Dir Wind Speed Gust Speed Precip Events Conditions
1:54 AM 55.0 °F 54.0 °F 96% 30.17 in 8.0 mi Calm Calm - N/A   Clear
3:54 AM 54.0 °F 53.1 °F 97% 30.17 in 9.0 mi NNE 3.5 mph - N/A   Clear
4:54 AM 55.0 °F 53.1 °F 93% 30.16 in 9.0 mi NNE 5.8 mph - N/A   Clear
5:26 AM 55.0 °F 54.0 °F 96% 30.19 in 10.0 mi NNE 5.8 mph - N/A   Mostly Cloudy
6:54 AM 55.9 °F 54.0 °F 93% 30.20 in 10.0 mi NNE 5.8 mph - N/A   Overcast
7:08 AM 55.9 °F 55.0 °F 97% 30.21 in 10.0 mi NNE 6.9 mph - N/A   Overcast
7:54 AM 57.0 °F 55.0 °F 93% 30.20 in 10.0 mi NNE 6.9 mph - N/A   Overcast
8:06 AM 57.9 °F 55.0 °F 90% 30.22 in 10.0 mi NNE 8.1 mph - N/A   Overcast
9:54 AM 62.1 °F 55.9 °F 80% 30.23 in 10.0 mi NE 8.1 mph - N/A   Overcast
10:43 AM 63.0 °F 55.9 °F 78% 30.27 in 10.0 mi ENE 6.9 mph - N/A   Overcast
10:54 AM 63.0 °F 55.0 °F 75% 30.26 in 10.0 mi ENE 6.9 mph - N/A   Overcast
11:08 AM 62.1 °F 55.0 °F 78% 30.27 in 10.0 mi NE 3.5 mph - N/A   Overcast
12:03 PM 63.0 °F 55.9 °F 78% 30.27 in 10.0 mi Variable 4.6 mph - N/A   Overcast
12:13 PM 62.1 °F 55.9 °F 80% 30.26 in 10.0 mi ENE 9.2 mph - N/A   Overcast
12:23 PM 63.0 °F 55.9 °F 78% 30.26 in 10.0 mi NE 8.1 mph - N/A   Overcast
12:54 PM 64.0 °F 55.9 °F 75% 30.23 in 10.0 mi NE 11.5 mph - N/A   Overcast
1:19 PM 63.0 °F 55.0 °F 75% 30.23 in 10.0 mi Variable 6.9 mph 23.0 mph 0.00 in Rain Light Rain
1:31 PM 66.0 °F 55.9 °F 70% 30.23 in 10.0 mi NE 10.4 mph 17.3 mph 0.00 in   Overcast
1:54 PM 64.0 °F 55.0 °F 73% 30.22 in 10.0 mi Variable 5.8 mph - 0.00 in   Overcast
2:27 PM 64.9 °F 55.9 °F 73% 30.24 in 10.0 mi ENE 8.1 mph - N/A   Overcast
3:36 PM 64.0 °F 55.9 °F 75% 30.24 in 10.0 mi NE 8.1 mph 19.6 mph N/A   Overcast
3:44 PM 64.9 °F 57.0 °F 75% 30.24 in 10.0 mi Variable 6.9 mph - N/A   Overcast
3:54 PM 66.0 °F 57.0 °F 73% 30.22 in 10.0 mi NE 6.9 mph 17.3 mph N/A   Overcast
4:37 PM 66.0 °F 55.9 °F 70% 30.23 in 10.0 mi NE 9.2 mph - N/A   Overcast
4:54 PM 64.9 °F 55.9 °F 73% 30.22 in 10.0 mi ENE 9.2 mph - N/A   Overcast
5:50 PM 64.4 °F 55.4 °F 73% 30.23 in 10.0 mi NE 8.1 mph - N/A   Overcast
5:54 PM 64.0 °F 55.9 °F 75% 30.22 in 10.0 mi NE 9.2 mph - N/A   Overcast
6:15 PM 64.0 °F 55.9 °F 75% 30.24 in 10.0 mi Variable 6.9 mph - N/A   Overcast
6:52 PM 62.6 °F 55.4 °F 77% 30.23 in 10.0 mi Variable 5.8 mph - N/A   Overcast
6:54 PM 63.0 °F 55.9 °F 78% 30.22 in 10.0 mi Variable 5.8 mph - N/A   Overcast
7:54 PM 62.1 °F 57.0 °F 84% 30.23 in 10.0 mi NE 5.8 mph - 0.00 in Rain Light Rain
8:19 PM 61.0 °F 57.0 °F 87% 30.25 in 10.0 mi Variable 5.8 mph - 0.00 in   Overcast
8:54 PM 61.0 °F 57.0 °F 87% 30.24 in 10.0 mi Variable 6.9 mph - 0.00 in   Overcast
9:18 PM 61.0 °F 55.9 °F 83% 30.25 in 10.0 mi ENE 6.9 mph - N/A   Overcast
9:31 PM 61.0 °F 55.9 °F 83% 30.26 in 10.0 mi ENE 6.9 mph - N/A   Mostly Cloudy
9:54 PM 60.1 °F 55.9 °F 86% 30.25 in 10.0 mi Variable 5.8 mph - N/A   Partly Cloudy
10:30 PM 60.1 °F 55.9 °F 86% 30.28 in 10.0 mi East 8.1 mph - N/A   Mostly Cloudy
10:54 PM 59.0 °F 55.9 °F 90% 30.27 in 10.0 mi NE 8.1 mph - N/A   Mostly Cloudy
11:54 PM 59.0 °F 55.9 °F 90% 30.27 in 10.0 mi Variable 6.9 mph - 0.00 in Rain Light Rain